This is the latest recevied weather packets stored in our database for station/object SALT. If no packets are shown the sender has not sent any weather packets the latest 10 day(s).
| Time | Temp. | Humidity | Pressure | Rain* | Wind** | Luminosity | Snow |
|---|---|---|---|---|---|---|---|
| 1777753332 | 17.22° C | 24% | 1020.2 hPa | 0 mm | - | - | - |
| 1777752730 | 17.22° C | 25% | 1020.4 hPa | 0 mm | - | - | - |
| 1777752127 | 17.78° C | 24% | 1020.3 hPa | 0 mm | - | - | - |
| 1777751525 | 17.22° C | 25% | 1020.5 hPa | 0 mm | - | - | - |
| 1777750923 | 17.78° C | 24% | 1020.7 hPa | 0 mm | - | - | - |
| 1777750319 | 17.78° C | 25% | 1020.8 hPa | 0 mm | - | - | - |
| 1777749714 | 17.22° C | 24% | 1020.9 hPa | 0 mm | - | - | - |
| 1777749112 | 17.78° C | 23% | 1021.1 hPa | 0 mm | - | - | - |
| 1777748509 | 17.22° C | 23% | 1021.2 hPa | 0 mm | - | - | - |
| 1777747907 | 17.22° C | 23% | 1021.1 hPa | 0 mm | - | - | - |
| 1777746701 | 16.67° C | 23% | 1021.1 hPa | 0 mm | - | - | - |
| 1777746096 | 16.67° C | 24% | 1021.3 hPa | 0 mm | - | - | - |
| 1777745495 | 16.11° C | 25% | 1021.3 hPa | 0 mm | - | - | - |
| 1777744891 | 16.67° C | 24% | 1021.3 hPa | 0 mm | - | - | - |
| 1777744289 | 16.11° C | 23% | 1021.4 hPa | 0 mm | - | - | - |
| 1777743686 | 16.11° C | 24% | 1021.4 hPa | 0 mm | - | - | - |
| 1777743409 | 16.11° C | 23% | 1021.4 hPa | 0 mm | - | - | - |
| 1777743083 | 16.11° C | 23% | 1021.4 hPa | 0 mm | - | - | - |
| 1777742479 | 16.11° C | 24% | 1021.4 hPa | 0 mm | - | - | - |
| 1777741876 | 15.56° C | 24% | 1021.4 hPa | 0 mm | - | - | - |
| 1777741273 | 15.56° C | 23% | 1021.4 hPa | 0 mm | - | - | - |
| 1777740671 | 15° C | 24% | 1021.5 hPa | 0 mm | - | - | - |
| 1777740068 | 14.44° C | 23% | 1021.4 hPa | 0 mm | - | - | - |
| 1777738860 | 14.44° C | 25% | 1021.4 hPa | 0 mm | - | - | - |
| 1777738258 | 14.44° C | 25% | 1021.5 hPa | 0 mm | - | - | - |
* Rain latest 24 hours (hover to see other rain measurements)
** Current wind speed in m/s (hover to see current wind gust speed)